Regional Weather Roundup
Issued by NWS

Home | Current Version | Previous Version | Text Only | Print | Product List | Glossary On
Versions: 1 2 3 4 5 6 7 8 9 10 11 12 13 14 15 16 17 18 19 20 21 22 23 24 25 26 27 28 29 30 31 32 33 34 35 36 37 38 39 40 41 42 43 44 45 46 47 48 49 50
000
ASUS44 KBMX 231410
RWRAL

ALABAMA REGIONAL WEATHER ROUNDUP
NATIONAL WEATHER SERVICE BIRMINGHAM AL
900 AM CDT SAT MAY 23 2015

NOTE: "FAIR" INDICATES FEW OR NO CLOUDS BELOW 12,000 FEET
WITH NO SIGNIFICANT WEATHER AND/OR OBSTRUCTIONS TO VISIBILITY.

THE REMARK "TC" DENOTES TEMPERATURE IN DEGREES CELSIUS.

ALZ001>011-014-016>018-020-231500-
NORTH ALABAMA

CITY           SKY/WX    TMP DP  RH WIND       PRES   REMARKS
MUSCLE SHOALS  SUNNY     67  52  58 SE5       30.35R
HUNTSVILLE     MOSUNNY   70  52  52 E8        30.35R
DECATUR        SUNNY     67  53  61 E5        30.35R
HALEYVILLE     FAIR      68  54  60 E3        30.37R
GADSDEN        SUNNY    N/A N/A N/A E6        30.35S
$$

ALZ012-013-022-023-030>036-040>044-231500-
WEST CENTRAL ALABAMA

CITY           SKY/WX    TMP DP  RH WIND       PRES   REMARKS
TUSCALOOSA     SUNNY     72  56  57 E6        30.30F
$$

ALZ015-024>027-033>036-040>044-231500-
CENTRAL ALABAMA

CITY           SKY/WX    TMP DP  RH WIND       PRES   REMARKS
BIRMINGHAM     MOSUNNY   70  55  59 SE9       30.35R
MONTGOMERY     SUNNY     73  62  68 SE12      30.31S
SHELBY CO ARPT SUNNY     71  59  65 SE7G18    30.33R
MAXWELL AFB    NOT AVBL
GREENVILLE     FAIR      72  63  73 SE9       30.30R
$$

ALZ019-021-028-029-037-038-045>048-231500-
EAST CENTRAL ALABAMA

CITY           SKY/WX    TMP DP  RH WIND       PRES   REMARKS
ANNISTON       SUNNY     70  56  61 NE7       30.35S
ALEXANDER CITY SUNNY     71  59  64 SE9       30.35R
AUBURN         SUNNY     70  54  56 SE10      30.36S
$$

ALZ051>064-231500-
SOUTHWEST ALABAMA

CITY           SKY/WX    TMP DP  RH WIND       PRES   REMARKS
MOBILE         MOSUNNY   77  59  53 NE7       30.25S
BROOKLEY FIELD SUNNY     76  59  55 NE7       30.26R
EVERGREEN      SUNNY     73  59  61 E6        30.28S
$$

ALZ049-050-065>069-231500-
SOUTHEAST ALABAMA

CITY           SKY/WX    TMP DP  RH WIND       PRES   REMARKS
DOTHAN         SUNNY     75  58  55 E15       30.34R
OZARK          SUNNY     76  60  58 E14G21    30.30R
TROY           SUNNY     75  61  61 SE12G18   30.32R
EUFAULA        FAIR      77  59  53 SE10G16   30.32R
$$


USA.gov is the U.S. government's official web portal to all federal, state and local government web resources and services.